Location: Anaheim
(33.8350°N, 117.9140°W)
Time: 09:27:06
(UTC-07:00)

Amateur Radio Satellites - All Passes

Search period start: 26 May 2016 08:57
Search period end: 27 May 2016 08:57
Location: Anaheim, 33.8350°N, 117.9140°W

Satellite Date Start Highest point End Downlink Frequencies (MHz)
Time Altitude Azimuth
PCSat 26 May 08:58:46 09:02:37 20° 105° (ESE) 09:06:29 145.827
Oscar 11 26 May 09:01:53 09:03:45 12° 93° (E) 09:05:35 145.826/435.025
CUTE 1.7 + AOD 2 26 May 09:02:10 09:06:27 86° 283° (WNW) 09:10:45 437.475
DOVE 4 26 May 09:05:57 09:09:08 20° 291° (WNW) 09:12:13 437.250
CUBEBUG 2 26 May 09:09:55 09:13:38 31° 98° (E) 09:17:25 437.445
JUGNU 26 May 09:11:46 09:16:04 21° 183° (S) 09:20:23 437.505
ZACube-1 26 May 09:12:28 09:14:48 14° 94° (E) 09:17:08 437.345
SRMSAT 26 May 09:14:23 09:18:07 17° 170° (S) 09:21:51 437.500
UNISAT 6 26 May 09:18:38 09:20:00 11° 66° (ENE) 09:21:20 437.425
AUBIESAT-1 26 May 09:18:44 09:21:53 43° 290° (WNW) 09:25:02 437.475
M-CUBED/EXP-1 PRIME 26 May 09:24:20 09:27:10 27° 292° (WNW) 09:29:59 437.505
TIGRISAT 26 May 09:25:59 09:28:02 13° 67° (ENE) 09:30:04 435.000
AIST 1 26 May 09:29:30 09:33:23 33° 269° (W) 09:37:15
COMPASS 1 26 May 09:29:31 09:33:45 81° 281° (W) 09:37:58 437.405
AAUSAT CUBESAT 2 26 May 09:33:35 09:37:48 88° 109° (ESE) 09:41:59 437.432
UWE-3 26 May 09:41:28 09:45:34 53° 100° (E) 09:49:42 435.000/436.395/437.385
SO-50 26 May 09:45:12 09:49:35 39° 56° (NE) 09:53:50 436.795
CINEMA 3 26 May 09:47:23 09:50:40 23° 289° (WNW) 09:53:56 145.822/145.860
Cosmos 2499 26 May 09:48:45 09:57:19 61° 81° (E) 10:06:03 435.465 / 435.565
FUNcube-1 26 May 09:50:00 09:53:57 39° 99° (E) 09:57:57 145.935
ANTELSAT 26 May 09:57:04 10:00:59 32° 73° (ENE) 10:04:50 437.575/2403.000
O/OREOS (USA 219) 26 May 10:02:17 10:06:50 72° 290° (WNW) 10:11:23 437.305
CANX-2 26 May 10:12:43 10:14:15 12° 293° (WNW) 10:15:46 2200.000
DELFI C3 26 May 10:16:13 10:20:05 44° 99° (E) 10:23:56 145.870
SEEDS 26 May 10:17:29 10:20:04 16° 291° (WNW) 10:22:38 437.485
HO-68 26 May 10:26:02 10:31:45 27° 297° (WNW) 10:37:29 435.675
Oscar 11 26 May 10:35:55 10:40:03 44° 286° (WNW) 10:44:10 145.826/435.025
PCSat 26 May 10:40:28 10:45:37 45° 300° (WNW) 10:50:49 145.827
ZACube-1 26 May 10:47:20 10:51:10 36° 287° (WNW) 10:55:03 437.345
CUBEBUG 2 26 May 10:47:24 10:50:01 16° 291° (WNW) 10:52:39 437.445
GONETS M04 26 May 10:49:19 10:56:53 35° 274° (W) 11:04:28
UNISAT 6 26 May 10:51:56 10:56:14 53° 260° (W) 11:00:29 437.425
BEESAT 3 26 May 10:52:51 10:55:29 17° 110° (ESE) 10:58:08 437.485
POPSAT HIP 1 26 May 10:54:43 10:58:09 24° 71° (ENE) 11:01:34 437.405
QB50P1 26 May 10:55:13 10:58:41 25° 71° (ENE) 11:02:08 145.935-145.965
QB50P2 26 May 10:56:50 11:00:27 27° 71° (ENE) 11:04:03 145.880/145.840
POLYITAN 1 26 May 10:59:16 11:02:53 28° 72° (ENE) 11:06:31 437.675
TIGRISAT 26 May 11:00:06 11:04:19 45° 260° (W) 11:08:28 435.000
JUGNU 26 May 11:01:11 11:04:25 15° 192° (SSW) 11:07:38 437.505
SRMSAT 26 May 11:02:20 11:06:37 21° 181° (S) 11:10:55 437.500
HUMSAT D 26 May 11:07:52 11:12:03 84° 104° (ESE) 11:16:15 437.325/437.525
NANOSAT C BR1 26 May 11:13:56 11:17:52 39° 73° (ENE) 11:21:50 145.865
UWE-3 26 May 11:20:53 11:21:33 10° 293° (WNW) 11:22:13 435.000/436.395/437.385
SO-50 26 May 11:26:38 11:29:42 18° 251° (WSW) 11:32:41 436.795
FUNcube-1 26 May 11:27:42 11:29:51 14° 292° (WNW) 11:31:59 145.935
CUSAT 1 26 May 11:30:15 11:35:38 40° 88° (E) 11:42:17 437.405
AISAT 26 May 11:30:19 11:32:57 15° 94° (E) 11:35:33 437.250
ANTELSAT 26 May 11:34:47 11:37:43 17° 265° (W) 11:40:37 437.575/2403.000
Cosmos 2499 26 May 11:43:07 11:49:46 25° 276° (W) 11:56:34 435.465 / 435.565
UKube-1 26 May 11:46:12 11:48:35 14° 94° (E) 11:50:56 .
BEESAT 2 26 May 11:51:31 11:55:20 49° 115° (ESE) 11:59:12 435.950
DUCHIFAT 1 26 May 11:52:55 11:57:07 70° 258° (WSW) 12:01:20 145.980
DELFI C3 26 May 11:53:12 11:54:30 11° 293° (WNW) 11:55:49 145.870
ESTCUBE 1 26 May 12:01:15 12:05:43 55° 100° (E) 12:10:10 437.505/2401.250
JAS-2 26 May 12:16:26 12:23:03 41° 68° (ENE) 12:30:09 435.910
BUGSAT 1 26 May 12:16:51 12:21:05 81° 260° (W) 12:25:17 437.445
CUBEBUG 1 26 May 12:25:59 12:30:22 73° 102° (ESE) 12:34:41 437.445
DX 1 26 May 12:28:41 12:33:00 61° 101° (E) 12:37:16 434.975-435.025
VELOX 1 26 May 12:29:14 12:33:39 77° 101° (E) 12:38:02 145.980
BEESAT 3 26 May 12:29:28 12:32:55 29° 304° (NW) 12:36:26 437.485
POPSAT HIP 1 26 May 12:30:29 12:33:49 22° 264° (W) 12:37:09 437.405
QB50P1 26 May 12:31:05 12:34:22 22° 264° (W) 12:37:38 145.935-145.965
QB50P2 26 May 12:33:07 12:36:12 19° 265° (W) 12:39:17 145.880/145.840
POLYITAN 1 26 May 12:35:38 12:38:39 19° 265° (W) 12:41:41 437.675
50 SAT 26 May 12:50:12 12:53:41 39° 286° (WNW) 12:57:11 437.505
SRMSAT 26 May 12:51:34 12:55:07 16° 191° (S) 12:58:40 437.500
NANOSAT C BR1 26 May 12:51:40 12:53:44 13° 267° (W) 12:55:47 145.865
DANDE 26 May 12:53:52 12:58:46 85° 279° (W) 13:05:26 436.750
SPROUT 26 May 12:59:16 13:03:29 65° 101° (E) 13:07:41 437.525
AISAT 26 May 13:05:27 13:09:31 37° 288° (WNW) 13:13:33 437.250
Oscar 19 26 May 13:09:27 13:14:25 48° 73° (ENE) 13:19:24 437.125/150
CUSAT 1 26 May 13:12:39 13:17:52 29° 290° (WNW) 13:24:07 437.405
UKube-1 26 May 13:20:44 13:24:44 38° 287° (WNW) 13:28:43 .
Gurwin Techsat 1B 26 May 13:22:18 13:26:35 26° 68° (ENE) 13:30:53 435.225
TISAT 1 26 May 13:28:41 13:32:29 34° 98° (E) 13:36:16 437.305
BEESAT 2 26 May 13:31:38 13:33:27 13° 311° (NW) 13:35:15 435.950
ESTCUBE 1 26 May 13:40:18 13:42:00 12° 294° (WNW) 13:43:42 437.505/2401.250
AIST 2 26 May 13:49:45 13:53:48 58° 115° (ESE) 13:57:52 435.215
ITAMSAT 1 26 May 13:50:00 13:53:21 18° 66° (ENE) 13:56:42 435.822/435.867
JAS-2 26 May 14:01:33 14:07:57 36° 265° (W) 14:14:55 435.910
BEESAT 26 May 14:03:30 14:06:07 15° 93° (E) 14:08:45 436.000
Cosmos 2491 26 May 14:08:11 14:13:31 17° 67° (ENE) 14:18:49 435.465 / 435.565
AO-7 26 May 14:37:31 14:44:32 32° 62° (ENE) 14:51:34 29.400- 29.500
Oscar 19 26 May 14:50:40 14:53:55 17° 266° (W) 14:57:10 437.125/150
Gurwin Techsat 1B 26 May 15:01:36 15:06:20 33° 262° (W) 15:11:05 435.225
TISAT 1 26 May 15:05:20 15:07:50 16° 292° (WNW) 15:10:18 437.305
SWISSCUBE 26 May 15:09:26 15:14:15 89° 294° (WNW) 15:19:03 437.505
AO-85 26 May 15:11:34 15:15:39 30° 54° (NE) 15:19:24 145.980
ITUPSAT 1 26 May 15:14:54 15:19:44 89° 277° (W) 15:24:32 437.325
RS-15 26 May 15:20:53 15:23:36 11° 95° (E) 15:26:21 29.354- 29.394
ITAMSAT 1 26 May 15:27:26 15:32:23 47° 260° (W) 15:37:23 435.822/435.867
AIST 2 26 May 15:31:01 15:32:38 12° 312° (NW) 15:34:15 435.215
BEESAT 26 May 15:39:31 15:44:05 46° 287° (WNW) 15:48:39 436.000
HORYU 2 26 May 15:41:42 15:43:15 12° 65° (ENE) 15:44:49 437.375
YUBILEINY 26 May 15:58:13 16:06:23 47° 89° (E) 16:14:32 435.215
STARS 26 May 15:58:45 16:00:57 14° 94° (E) 16:03:09 437.465
Cosmos 2491 26 May 16:02:34 16:11:20 83° 265° (W) 16:20:02 435.465 / 435.565
AO-7 26 May 16:28:56 16:36:54 51° 258° (WSW) 16:44:56 29.400- 29.500
AO-85 26 May 16:52:35 16:55:49 20° 252° (WSW) 16:58:52 145.980
KKS-1 26 May 16:54:19 16:58:39 58° 285° (WNW) 17:02:59 437.445
CUTE-I 26 May 16:58:17 16:59:12 10° 62° (ENE) 17:00:08 437.470
MOZHAYETS 4 26 May 17:00:59 17:05:36 68° 284° (WNW) 17:10:11
BRITE-PL 26 May 17:04:52 17:08:05 16° 65° (ENE) 17:11:20 437.365/2234.400
HORYU 2 26 May 17:14:59 17:19:19 53° 260° (W) 17:23:38 437.375
RS-15 26 May 17:22:34 17:33:38 71° 113° (ESE) 17:45:21 29.354- 29.394
LilacSat-2 26 May 17:25:55 17:27:27 12° 69° (ENE) 17:28:59 437.200
STARS 26 May 17:33:22 17:37:27 41° 287° (WNW) 17:41:32 437.465
GOMX 1 26 May 17:35:53 17:38:44 14° 65° (ENE) 17:41:33 467.674
NOAA 18 26 May 17:36:13 17:41:07 35° 70° (ENE) 17:46:01 137.9125
Cosmos 2504 26 May 17:43:49 17:50:49 61° 92° (E) 17:58:09 435.465 / 435.565
NOAA 15 26 May 17:46:03 17:51:10 51° 72° (ENE) 17:56:17 137.62
Cubesat XI-IV 26 May 17:47:13 17:51:57 34° 70° (ENE) 17:56:42 437.490
YUBILEINY 26 May 17:55:48 18:03:17 32° 286° (WNW) 18:10:50 435.215
Cosmos 2491 26 May 18:03:43 18:06:41 12° 283° (WNW) 18:09:39 435.465 / 435.565
CUBESAT XI-V 26 May 18:23:10 18:27:54 84° 281° (W) 18:32:35 437.345
DOVE 4 26 May 18:29:02 18:33:02 23° 70° (ENE) 18:36:57 437.250
CUTE-I 26 May 18:33:11 18:38:28 83° 255° (WSW) 18:43:49 437.470
M-CUBED/EXP-1 PRIME 26 May 18:34:53 18:36:13 11° 64° (ENE) 18:37:33 437.505
BRITE-PL 26 May 18:40:23 18:45:53 65° 259° (W) 18:51:34 437.365/2234.400
LilacSat-2 26 May 18:57:54 19:01:24 35° 262° (W) 19:04:55 437.200
HO-68 26 May 19:02:57 19:08:36 26° 63° (ENE) 19:14:15 435.675
CINEMA 3 26 May 19:08:49 19:11:37 16° 68° (ENE) 19:14:22 145.822/145.860
GOMX 1 26 May 19:10:44 19:16:11 67° 260° (W) 19:21:37 467.674
STRAND 1 26 May 19:15:59 19:20:06 24° 96° (E) 19:24:12 437.568
NOAA 18 26 May 19:17:20 19:21:46 25° 263° (W) 19:26:13 137.9125
CANX-2 26 May 19:24:20 19:27:31 21° 70° (ENE) 19:30:43 2200.000
Cubesat XI-IV 26 May 19:27:46 19:32:00 24° 264° (W) 19:36:18 437.490
NOAA 15 26 May 19:27:57 19:31:09 16° 266° (W) 19:34:24 137.62
SEEDS 26 May 19:30:01 19:32:25 15° 68° (ENE) 19:34:51 437.485
PCSat 26 May 19:31:54 19:37:17 63° 62° (ENE) 19:42:38 145.827
RS-15 26 May 19:37:04 19:47:02 33° 316° (NW) 19:57:31 29.354- 29.394
Cosmos 2504 26 May 19:39:49 19:44:45 19° 290° (WNW) 19:49:52 435.465 / 435.565
CUTE 1.7 + AOD 2 26 May 19:50:58 19:54:52 38° 74° (ENE) 19:58:47 437.475
AUBIESAT-1 26 May 20:00:23 20:04:38 79° 253° (WSW) 20:08:37 437.475
CUBEBUG 2 26 May 20:05:03 20:08:02 18° 70° (ENE) 20:10:58 437.445
DOVE 4 26 May 20:05:35 20:10:27 37° 262° (W) 20:15:13 437.250
M-CUBED/EXP-1 PRIME 26 May 20:06:11 20:10:25 53° 254° (WSW) 20:14:23 437.505
BEESAT 2 26 May 20:15:42 20:16:21 10° 48° (NE) 20:17:01 435.950
O/OREOS (USA 219) 26 May 20:16:13 20:20:40 72° 253° (WSW) 20:25:07 437.305
COMPASS 1 26 May 20:16:25 20:20:14 38° 74° (ENE) 20:24:05 437.405
AIST 1 26 May 20:20:02 20:21:13 11° 85° (E) 20:22:24
AAUSAT CUBESAT 2 26 May 20:20:05 20:23:46 33° 73° (ENE) 20:27:30 437.432
PRISM 26 May 20:29:38 20:32:51 21° 96° (E) 20:36:03 437.425
UWE-3 26 May 20:35:01 20:38:39 26° 72° (ENE) 20:42:13 435.000/436.395/437.385
FUNcube-1 26 May 20:42:35 20:45:37 19° 70° (ENE) 20:48:37 145.935
CINEMA 3 26 May 20:43:47 20:48:24 45° 261° (W) 20:52:51 145.822/145.860
HO-68 26 May 20:48:57 20:55:52 52° 259° (W) 21:02:49 435.675
BEESAT 3 26 May 20:49:50 20:53:36 42° 58° (ENE) 20:57:20 437.485
STRAND 1 26 May 20:54:41 20:59:15 33° 290° (WNW) 21:03:48 437.568
DELFI C3 26 May 20:59:39 21:02:02 16° 69° (ENE) 21:04:26 145.870
CANX-2 26 May 20:59:47 21:03:13 24° 264° (W) 21:06:40 2200.000
SEEDS 26 May 21:04:00 21:07:48 35° 262° (W) 21:11:38 437.485
PCSat 26 May 21:17:28 21:20:03 14° 257° (WSW) 21:22:39 145.827
Oscar 11 26 May 21:26:14 21:30:31 83° 80° (E) 21:34:50 145.826/435.025
PHONESAT 2.4 26 May 21:28:09 21:30:51 26° 147° (SSE) 21:33:33 2401.200-2431.200
CUTE 1.7 + AOD 2 26 May 21:28:48 21:30:50 13° 267° (W) 21:32:53 437.475
ISS 26 May 21:34:32 21:37:47 71° 317° (NW) 21:41:02 145.825
ZACube-1 26 May 21:38:41 21:42:58 79° 259° (W) 21:47:10 437.345
CUBEBUG 2 26 May 21:40:26 21:44:24 32° 262° (W) 21:48:18 437.445
GONETS M04 26 May 21:47:48 21:56:19 56° 91° (E) 22:04:48
BEESAT 2 26 May 21:50:39 21:54:36 64° 244° (WSW) 21:58:31 435.950
COMPASS 1 26 May 21:53:58 21:55:55 13° 267° (W) 21:57:53 437.405
AIST 1 26 May 21:54:04 21:58:17 47° 279° (W) 22:02:34
HUMSAT D 26 May 21:55:33 21:59:12 32° 73° (ENE) 22:02:51 437.325/437.525
AAUSAT CUBESAT 2 26 May 21:56:56 21:59:19 15° 266° (W) 22:01:44 437.432
DANDE 26 May 21:57:32 22:00:23 12° 61° (ENE) 22:03:09 436.750
RS-15 26 May 22:00:31 22:05:09 13° 350° (N) 22:09:50 29.354- 29.394
PRISM 26 May 22:04:41 22:08:04 24° 290° (WNW) 22:11:25 437.425
CUSAT 1 26 May 22:10:07 22:16:22 27° 69° (ENE) 22:21:44 437.405
UWE-3 26 May 22:11:48 22:15:03 20° 264° (W) 22:18:15 435.000/436.395/437.385
AIST 2 26 May 22:16:10 22:18:14 13° 49° (NE) 22:20:18 435.215
FUNcube-1 26 May 22:18:02 22:21:40 27° 263° (W) 22:25:16 145.935
Cosmos 2499 26 May 22:21:13 22:28:03 50° 90° (E) 22:35:18 435.465 / 435.565
BEESAT 3 26 May 22:29:21 22:30:52 12° 252° (WSW) 22:32:24 437.485
DELFI C3 26 May 22:33:08 22:36:37 30° 263° (W) 22:40:08 145.870
UNISAT 6 26 May 22:47:19 22:51:22 39° 99° (E) 22:55:29 437.425
TIGRISAT 26 May 22:55:06 22:59:15 46° 100° (E) 23:03:27 435.000
ESTCUBE 1 26 May 22:57:06 23:01:04 31° 72° (ENE) 23:05:03 437.505/2401.250
PHONESAT 2.4 26 May 23:04:26 23:07:30 48° 341° (NNW) 23:10:32 2401.200-2431.200
CUBEBUG 1 26 May 23:18:00 23:22:04 36° 72° (ENE) 23:26:08 437.445
DX 1 26 May 23:20:27 23:24:20 32° 72° (ENE) 23:28:15 434.975-435.025
VELOX 1 26 May 23:22:34 23:26:45 40° 73° (ENE) 23:30:56 145.980
50 SAT 26 May 23:24:22 23:27:49 44° 75° (ENE) 23:31:18 437.505
ANTELSAT 26 May 23:28:25 23:32:41 64° 284° (WNW) 23:37:01 437.575/2403.000
HUMSAT D 26 May 23:32:33 23:34:53 15° 266° (W) 23:37:13 437.325/437.525
DANDE 26 May 23:36:25 23:44:50 68° 79° (E) 23:52:13 436.750
DUCHIFAT 1 26 May 23:41:30 23:44:52 23° 96° (E) 23:48:13 145.980
GONETS M04 26 May 23:46:20 23:53:28 27° 288° (WNW) 00:00:38
SPROUT 26 May 23:49:11 23:52:55 29° 72° (ENE) 23:56:39 437.525
CUSAT 1 26 May 23:51:36 23:58:49 49° 270° (W) 00:04:46 437.405
AIST 2 26 May 23:52:59 23:57:00 51° 245° (WSW) 00:01:00 435.215
SO-50 26 May 23:55:23 23:59:43 33° 112° (ESE) 00:04:05 436.795
AISAT 26 May 23:58:14 00:02:41 70° 258° (WSW) 00:07:10 437.250
BUGSAT 1 27 May 00:03:38 00:06:26 18° 95° (E) 00:09:12 437.445
UKube-1 27 May 00:10:45 00:15:04 78° 256° (WSW) 00:19:25 .
Cosmos 2499 27 May 00:15:52 00:21:29 24° 288° (WNW) 00:27:25 435.465 / 435.565
RS-15 27 May 00:17:23 00:25:16 19° 28° (NNE) 00:33:10 29.354- 29.394
TISAT 1 27 May 00:17:35 00:20:13 16° 68° (ENE) 00:22:52 437.305
POPSAT HIP 1 27 May 00:18:01 00:22:13 77° 102° (ESE) 00:26:24 437.405
QB50P1 27 May 00:18:30 00:22:42 80° 100° (E) 00:26:53 145.935-145.965
QB50P2 27 May 00:20:30 00:24:43 90° 153° (SSE) 00:28:55 145.880/145.840
POLYITAN 1 27 May 00:22:57 00:27:10 88° 274° (W) 00:31:21 437.675
UNISAT 6 27 May 00:25:23 00:27:44 15° 292° (WNW) 00:30:08 437.425
TIGRISAT 27 May 00:33:41 00:35:31 13° 293° (WNW) 00:37:23 435.000
ESTCUBE 1 27 May 00:34:38 00:37:52 19° 265° (W) 00:41:08 437.505/2401.250
NANOSAT C BR1 27 May 00:37:28 00:41:36 61° 284° (WNW) 00:45:43 145.865
PHONESAT 2.4 27 May 00:42:04 00:44:39 23° 357° (N) 00:47:14 2401.200-2431.200
CUBEBUG 1 27 May 00:55:41 00:58:25 16° 266° (W) 01:01:10 437.445
DX 1 27 May 00:57:33 01:00:33 18° 265° (W) 01:03:33 434.975-435.025
VELOX 1 27 May 01:00:52 01:03:20 15° 266° (W) 01:05:49 145.980
BEESAT 27 May 01:07:40 01:09:11 11° 64° (ENE) 01:10:42 436.000
JAS-2 27 May 01:15:41 01:22:45 48° 98° (E) 01:29:00 435.910
DUCHIFAT 1 27 May 01:17:12 01:20:25 22° 290° (WNW) 01:23:39 145.980
DANDE 27 May 01:20:46 01:26:46 23° 277° (W) 01:32:19 436.750
Oscar 19 27 May 01:25:38 01:29:39 23° 95° (E) 01:33:39 437.125/150
SPROUT 27 May 01:25:50 01:28:51 19° 265° (W) 01:31:53 437.525
SO-50 27 May 01:36:05 01:40:12 26° 307° (NW) 01:44:19 436.795
BUGSAT 1 27 May 01:38:25 01:41:46 26° 289° (WNW) 01:45:06 437.445
Gurwin Techsat 1B 27 May 01:43:37 01:46:06 13° 92° (E) 01:48:35 435.225
TISAT 1 27 May 01:51:44 01:55:34 33° 262° (W) 01:59:25 437.305
SWISSCUBE 27 May 02:11:51 02:16:33 67° 75° (ENE) 02:21:17 437.505
YUBILEINY 27 May 02:14:32 02:20:10 18° 68° (ENE) 02:25:46 435.215
ITUPSAT 1 27 May 02:17:37 02:22:19 68° 75° (ENE) 02:27:03 437.325
PHONESAT 2.4 27 May 02:19:02 02:21:54 32° 14° (NNE) 02:24:45 2401.200-2431.200
RS-15 27 May 02:29:01 02:41:11 59° 56° (NE) 02:53:12 29.354- 29.394
BEESAT 27 May 02:41:41 02:46:23 64° 259° (WSW) 02:51:07 436.000
JAS-2 27 May 03:01:16 03:07:16 28° 296° (WNW) 03:12:47 435.910
Oscar 19 27 May 03:04:22 03:08:59 34° 289° (WNW) 03:13:34 437.125/150
Cosmos 2491 27 May 03:04:36 03:11:02 23° 82° (E) 03:17:26 435.465 / 435.565
Gurwin Techsat 1B 27 May 03:21:08 03:26:22 61° 286° (WNW) 03:31:36 435.225
Cosmos 2504 27 May 03:41:10 03:46:51 19° 70° (ENE) 03:52:38 435.465 / 435.565
ITAMSAT 1 27 May 03:43:52 03:49:07 84° 102° (ESE) 03:54:21 435.822/435.867
KKS-1 27 May 03:48:01 03:52:29 77° 76° (ENE) 03:56:58 437.445
PHONESAT 2.4 27 May 03:55:41 03:58:45 54° 209° (SSW) 04:01:48 2401.200-2431.200
MOZHAYETS 4 27 May 03:58:40 04:03:11 71° 77° (ENE) 04:07:44
ISS 27 May 04:05:43 04:08:17 21° 34° (NE) 04:10:52 145.825
YUBILEINY 27 May 04:09:04 04:17:50 79° 266° (W) 04:26:36 435.215
STARS 27 May 04:25:30 04:29:55 79° 258° (WSW) 04:34:20 437.465
AO-7 27 May 04:34:25 04:42:47 72° 105° (ESE) 04:51:07 29.400- 29.500
RS-15 27 May 04:42:17 04:53:05 38° 255° (WSW) 05:03:48 29.354- 29.394
Cosmos 2491 27 May 04:58:20 05:07:02 64° 279° (W) 05:15:49 435.465 / 435.565
HORYU 2 27 May 05:09:46 05:13:53 37° 99° (E) 05:18:00 437.375
AO-85 27 May 05:20:58 05:25:40 30° 111° (ESE) 05:30:21 145.980
CUBESAT XI-V 27 May 05:22:16 05:26:50 60° 75° (ENE) 05:31:27 437.345
JUGNU 27 May 05:22:19 05:24:17 12° 164° (SSE) 05:26:14 437.505
ITAMSAT 1 27 May 05:27:27 05:27:49 10° 298° (WNW) 05:28:11 435.822/435.867
Cosmos 2504 27 May 05:32:24 05:40:56 79° 266° (W) 05:49:47 435.465 / 435.565
ISS 27 May 05:41:51 05:44:45 30° 229° (SW) 05:47:38 145.825
NOAA 18 27 May 06:02:43 06:06:41 20° 95° (E) 06:10:38 137.9125
NOAA 15 27 May 06:05:41 06:10:05 26° 97° (E) 06:14:25 137.62
Cubesat XI-IV 27 May 06:09:01 06:12:43 19° 94° (E) 06:16:24 437.490
YUBILEINY 27 May 06:10:40 06:13:06 11° 283° (WNW) 06:15:33 435.215
STRAND 1 27 May 06:28:22 06:32:21 24° 68° (ENE) 06:36:20 437.568
AO-7 27 May 06:28:38 06:34:45 23° 302° (WNW) 06:40:53 29.400- 29.500
LilacSat-2 27 May 06:35:04 06:38:22 28° 97° (E) 06:41:39 437.200
HORYU 2 27 May 06:47:20 06:50:07 17° 293° (WNW) 06:52:54 437.375
BRITE-PL 27 May 06:50:09 06:55:09 59° 100° (E) 06:59:42 437.365/2234.400
CUTE-I 27 May 06:54:13 06:59:28 55° 101° (E) 07:04:43 437.470
AO-85 27 May 07:01:11 07:06:05 34° 305° (NW) 07:10:57 145.980
CUBESAT XI-V 27 May 07:03:38 07:04:32 10° 269° (W) 07:05:27 437.345
JUGNU 27 May 07:08:29 07:12:36 19° 173° (S) 07:16:43 437.505
GOMX 1 27 May 07:17:33 07:22:02 49° 99° (E) 07:26:13 467.674
Cosmos 2504 27 May 07:30:07 07:33:00 12° 281° (WNW) 07:35:55 435.465 / 435.565
NOAA 18 27 May 07:42:18 07:47:27 43° 289° (WNW) 07:52:37 137.9125
NOAA 15 27 May 07:45:09 07:49:47 32° 291° (WNW) 07:54:25 137.62
Cubesat XI-IV 27 May 07:47:51 07:52:55 45° 288° (WNW) 07:58:00 437.490
GONETS M04 27 May 08:04:09 08:10:30 22° 70° (ENE) 08:16:47
AIST 1 27 May 08:05:26 08:09:08 27° 78° (ENE) 08:12:46
STRAND 1 27 May 08:06:44 08:11:17 33° 262° (W) 08:15:53 437.568
DOVE 4 27 May 08:08:40 08:13:02 87° 108° (ESE) 08:17:11 437.250
LilacSat-2 27 May 08:10:15 08:12:24 15° 291° (WNW) 08:14:33 437.200
Cosmos 2499 27 May 08:17:53 08:22:40 16° 67° (ENE) 08:27:28 435.465 / 435.565
HO-68 27 May 08:20:53 08:27:29 38° 99° (E) 08:34:03 435.675
PCSat 27 May 08:29:23 08:31:59 14° 103° (ESE) 08:34:34 145.827
BRITE-PL 27 May 08:30:49 08:32:55 13° 297° (WNW) 08:34:58 437.365/2234.400
SO-50 27 May 08:32:20 08:34:04 12° 45° (NE) 08:35:47 436.795
CUTE-I 27 May 08:35:47 08:39:01 16° 295° (WNW) 08:42:14 437.470
CINEMA 3 27 May 08:42:22 08:46:27 55° 100° (E) 08:50:31 145.822/145.860
O/OREOS (USA 219) 27 May 08:46:24 08:49:48 21° 101° (E) 08:53:12 437.305
CANX-2 27 May 08:47:37 08:51:55 74° 102° (ESE) 08:56:11 2200.000
